Flag for Kuwait Weather past 2 weeks in Kuwait City, Kuwait

68 °F


Feels Like: 68 °F
Forecast: 61 / 73 °F
Wind: 6 mph from West

Location: Kuwait International Airport

Current Time: Nov 28, 2015 at 9:56:33 PM

Latest Report: Nov 28, 2015 at 9:00 PM

Visibility: 5 mi

Pressure: 30.04 "Hg

Humidity: 78%

Dew point: 61 °F

Location of Kuwait CityLocation

Historic Weather in Kuwait City — Graph


Kuwait City temperature yesterday

Maximum temperature yesterday: 79 °F (at 12:30 PM)
Minimum temperature yesterday: 57 °F (at 5:00 AM)
Average temperature yesterday: 67 °F

Past Weeks' High & Low Weather Summary

High82 °F (Nov 17, 2:00 PM)100% (Nov 27, 6:00 AM)30.18 "Hg (Nov 27, 6:00 AM)
Low50 °F (Nov 16, 3:30 AM)18% (Nov 25, 2:00 PM)29.83 "Hg (Nov 18, 4:00 AM)
Average65 °F59%30.07 "Hg
* Reported Nov 13 9:00 PM — Nov 28 9:00 PM, Kuwait City, Weather by CustomWeather, © 2015

Note: Actual official high and low records may vary slightly from our data, if they occured in-between our weather recording intervals... More about our weather records


Kuwait City weather history for previous 24 hours

Time TempWeatherWind HumidityBarometerVisibility
9:00 PM
Sat, Nov 28
68 °FClear.6 mph78%30.04 "Hg5 mi
8:30 PM68 °FPassing clouds.No wind78%30.04 "Hg5 mi
8:00 PM70 °FPassing clouds.3 mph78%30.04 "Hg5 mi
7:30 PM72 °FPassing clouds.No wind73%30.04 "Hg5 mi
7:00 PM72 °FPassing clouds.5 mph73%30.01 "HgN/A
6:30 PM72 °FPassing clouds.5 mph73%30.01 "HgN/A
6:00 PM73 °FPassing clouds.7 mph69%30.01 "HgN/A
5:30 PM75 °FPassing clouds.8 mph65%30.01 "HgN/A
5:00 PM75 °FPassing clouds.9 mph61%30.01 "HgN/A
4:30 PM79 °FSunny.9 mph54%30.01 "Hg10 mi
4:00 PM79 °FSunny.9 mph54%29.98 "Hg10 mi
3:30 PM81 °FPartly sunny.6 mph51%29.98 "HgN/A
3:00 PM81 °FPartly sunny.8 mph51%30.01 "HgN/A
2:30 PM81 °FPartly sunny.6 mph51%29.98 "HgN/A
2:00 PM81 °FSunny.5 mph51%29.98 "Hg10 mi
1:00 PM81 °FSunny.7 mph51%30.01 "Hg10 mi
12:30 PM81 °FSunny.6 mph51%30.01 "Hg10 mi
12:00 PM81 °FSunny.6 mph51%30.04 "Hg10 mi
11:30 AM79 °FSunny.6 mph51%30.04 "Hg10 mi
11:00 AM79 °FSunny.5 mph54%30.07 "Hg10 mi
9:00 AM72 °FSunny.No wind73%30.09 "Hg10 mi
8:30 AM70 °FClear.3 mph73%30.09 "Hg4 mi
8:00 AM66 °FFog.No wind83%30.07 "Hg3 mi
7:30 AM63 °FFog.No wind94%30.07 "Hg1 mi
7:00 AM59 °FFog.No wind100%30.07 "Hg1 mi
6:30 AM59 °FLight fog.No wind100%30.07 "Hg1 mi
6:00 AM59 °FClear.5 mph100%30.04 "Hg1 mi
5:30 AM57 °FClear.5 mph100%30.04 "Hg1 mi
5:00 AM61 °FClear.No wind100%30.04 "Hg1 mi
4:30 AM61 °FClear.5 mph100%30.04 "Hg1 mi
4:00 AM61 °FFog.5 mph100%30.04 "Hg1 mi
3:00 AM61 °FFog.3 mph100%30.04 "Hg1 mi
2:30 AM61 °FFog.5 mph100%30.04 "Hg1 mi
2:00 AM61 °FFog.5 mph94%30.04 "Hg1 mi
1:30 AM63 °FFog.5 mph94%30.04 "Hg1 mi
1:00 AM64 °FFog.No wind94%30.04 "Hg1 mi
12:30 AM63 °FFog.3 mph94%30.04 "Hg1 mi
12:00 AM63 °FFog.7 mph88%30.04 "Hg1 mi
11:30 PM
Fri, Nov 27
61 °FFog.5 mph88%30.07 "Hg2 mi
11:00 PM64 °FFog.No wind83%30.07 "Hg2 mi
10:30 PM64 °FClear.No wind83%30.07 "Hg4 mi
10:00 PM64 °FClear.No wind78%30.07 "Hg10 mi
9:30 PM64 °FClear.No wind78%30.07 "Hg10 mi
9:00 PM66 °FClear.3 mph73%30.07 "Hg10 mi
Weather by CustomWeather, © 2015

See weather overviewHow to use our weather pages